Regional Weather Roundup
Issued by NWS Nashville, TN

Home | Current Version | Previous Version | Text Only | Print | Product List | Glossary On
Versions: 1 2 3 4 5 6 7 8 9 10 11 12 13 14 15 16 17 18 19 20 21 22 23 24 25 26 27 28
000
ASUS44 KOHX 251510
RWROHX
MIDDLE TENNESSEE HOURLY WEATHER ROUNDUP
NATIONAL WEATHER SERVICE NASHVILLE TN
1000 AM CDT WED APR 25 2018

NOTE: "FAIR" INDICATES FEW OR NO CLOUDS BELOW 12,000 FEET WITH
NO SIGNIFICANT WEATHER AND/OR OBSTRUCTIONS TO VISIBILITY.

* THESE REPORTS ARE NOT UNDER NWS QUALITY CONTROL AND MAY NOT
  REPORT WEATHER SUCH AS PRECIPITATION AND FOG.


TNZ005>011-023>034-057-059-062>066-078-080-251600
...NORTHERN MIDDLE TENNESSEE...

CITY           SKY/WX    TMP DP  RH WIND       PRES   REMARKS
CLARKSVILLE      N/A     62  53  72 N9        30.03R
CROSSVILLE     CLOUDY    53  51  93 N9        29.98R FOG
GALLATIN       CLOUDY    59  52  77 NW12      30.03R
LEBANON        CLOUDY    59  52  77 N10       30.00R
LIVINGSTON     PTSUNNY   54  52  94 VRB6G15   29.98R
NASHVILLE      CLOUDY    61  52  72 N12       30.02R
PORTLAND       CLOUDY    57  52  82 N9        30.00R
SMYRNA         CLOUDY    59  53  80 N5        30.02R
SPARTA         CLOUDY    55  52  88 N9        29.98F
SPRINGFIELD    PTSUNNY   61  54  77 N8        30.02R
WEST NASHVILLE CLOUDY    61  52  72 N13       30.01R
$$
TNZ056-058-060-061-075>077-079-093>097-251600
...SOUTHERN MIDDLE TENNESSEE...

CITY           SKY/WX    TMP DP  RH WIND       PRES   REMARKS
COLUMBIA       PTSUNNY   61  57  88 NW8       30.02R
FAYETTEVILLE   CLOUDY    59  54  82 N10       30.01R
LEWISBURG      CLOUDY    61  52  72 N7        30.02R
MCMINNVILLE    CLOUDY    57  52  82 N7        30.00S
MURFREESBORO   CLOUDY    59  52  77 N8        30.00S
PULASKI        CLOUDY    63  55  77 VRB7      30.02S
SHELBYVILLE    CLOUDY    57  54  88 N13       30.01R
TULLAHOMA      CLOUDY    57  52  82 NW9       30.00R
WINCHESTER     CLOUDY    57  52  82 N9        30.00S
$$


...KEY TO REMARKS...
VSB - VISIBILITY IN MILES
WCI - WIND CHILL INDEX
HX  - HEAT INDEX





USA.gov is the U.S. government's official web portal to all federal, state and local government web resources and services.